Portada
METAR-TAF:

METAR-TAF

Aeroports :

Boone, Iowa, Estats Units d'Amèrica

Boone Municipal Airport

latitud: 42-03N, longitud: 093-51W, altitud: 354 m

Observació

L'informe es va fer fa 9 minuts, a les 04:55 UTC
Vent 13 kt del Nord
Temperatura 10°C
Humitat 82%
Pressió 1022 hPa
Visibilitat: 16.1 km
Cel cobert a una alçada de 7500 ft

METAR: KBNW 250455Z AUTO 35013KT 10SM OVC075 10/07 A3017 RMK AO2

Hora: 00:04 (05:04 UTC)


TAF: manca

Observacions i pronòstics meteorològics de més de 4000 aeroports (METAR i TAF).

Les estacions disponibles són els punts grocs i vermells al mapa.

Posi el ratolí al punt desitjat per veure el nom de l'estació.

Feu clic per veure les observacions i els pronòstics meteorològics.

Per canviar el mapa: feu clic els botons verds amb una creu de color negre per apropar; al botó verd amb un guió per allunyar la imatge; o en les fletxes verdes per a mapes adjacents.


METAR-TAF: